Date,TemperatureHighF,TemperatureAvgF,TemperatureLowF,DewpointHighF,DewpointAvgF,DewpointLowF,HumidityHigh,HumidityAvg,HumidityLow,PressureMaxIn,PressureMinIn,WindSpeedMaxMPH,WindSpeedAvgMPH,GustSpeedMaxMPH,PrecipitationSumIn
2013-8-1,92.3,74.3,60.8,53.0,37.9,6.1,71,34,4,30.22,29.99,13,2,15,0.00
2013-8-2,94.3,75.7,59.2,49.2,34.4,16.5,64,29,6,30.11,29.99,21,2,21,0.00
2013-8-3,93.4,73.5,59.5,55.6,41.2,16.6,84,37,6,30.28,30.08,22,2,22,0.28
2013-8-4,90.7,71.3,56.5,55.0,43.5,17.5,82,46,7,30.25,30.08,17,1,17,0.24
2013-8-5,87.4,74.0,60.8,48.4,37.5,23.9,53,31,11,30.14,30.05,12,2,14,0.00
2013-8-6,91.4,73.4,58.8,46.7,34.5,8.6,59,29,5,30.14,30.02,20,2,20,0.00
2013-8-7,74.3,67.5,59.7,49.7,43.0,35.6,68,42,28,30.14,30.05,13,2,13,0.00
2013-8-8,78.3,63.9,55.0,55.8,49.3,38.6,84,62,28,30.19,30.05,21,2,21,0.28
2013-8-9,82.0,63.2,51.4,51.6,42.7,22.0,82,52,13,30.19,30.11,12,2,12,0.04
2013-8-10,89.2,68.5,50.9,50.6,36.6,16.6,80,40,8,30.19,30.05,13,2,13,0.00
2013-8-11,86.0,68.5,58.3,56.1,41.0,22.7,66,40,11,30.19,30.11,15,1,15,0.12
2013-8-12,83.3,66.5,54.0,54.9,44.5,37.4,83,49,20,30.25,30.11,15,2,15,0.08
2013-8-13,80.6,66.3,53.6,54.5,42.6,30.4,84,48,19,30.25,30.14,15,2,15,0.00
2013-8-14,84.9,67.6,53.1,51.5,37.9,16.6,79,40,8,30.19,30.08,11,1,11,0.00
2013-8-15,87.6,70.7,53.8,44.6,32.9,8.8,67,31,6,30.19,30.08,8,1,8,0.00
2013-8-16,92.8,73.6,54.7,43.9,26.8,6.1,60,25,4,30.19,30.08,9,1,9,0.00
2013-8-17,96.4,77.0,57.6,39.8,26.3,6.1,48,22,4,30.16,29.99,10,2,10,0.00
2013-8-18,93.0,75.7,58.5,49.7,30.9,6.1,66,27,4,30.14,30.05,10,1,10,0.00
2013-8-19,95.9,77.9,57.6,41.8,26.2,6.1,51,21,4,30.11,30.02,10,2,10,0.00
2013-8-20,98.1,81.0,64.2,39.3,21.7,3.5,35,15,3,30.11,29.96,11,2,11,0.00
2013-8-21,90.7,75.5,64.2,44.5,32.8,17.0,45,24,7,30.16,30.05,13,2,13,0.00
2013-8-22,85.5,70.1,62.1,54.9,48.9,38.7,74,50,25,30.22,30.11,15,2,15,0.04
2013-8-23,89.8,72.2,60.3,52.2,43.3,24.8,72,40,10,30.22,29.99,15,2,15,0.00
2013-8-24,88.5,70.4,58.3,58.9,44.5,24.5,76,46,10,30.16,30.05,15,1,15,0.08
2013-8-25,91.8,73.9,60.8,54.0,42.9,17.5,72,41,7,30.19,30.08,13,1,13,0.00
2013-8-26,93.4,76.4,60.1,58.2,42.5,24.7,79,38,9,30.19,30.11,11,1,11,0.00
2013-8-27,93.0,77.0,63.0,50.5,41.6,24.5,63,33,9,30.19,30.08,10,1,10,0.00
2013-8-28,94.6,76.8,60.8,51.2,37.6,16.5,65,32,6,30.14,30.08,9,1,9,0.00
2013-8-29,95.9,77.7,61.0,45.0,33.0,16.5,50,25,6,30.16,30.11,13,1,13,0.00
2013-8-30,92.5,74.4,66.9,55.8,42.0,22.7,60,34,9,30.22,30.11,17,1,17,0.00
2013-8-31,91.6,75.5,65.1,53.1,37.4,17.5,57,29,7,30.14,30.05,14,1,14,0.00